Location: Clermont
(50.2608°N, 4.3172°E)
Time: 21:17:03
(UTC+00:00)

Cosmos 1833 - Pass Details

Date: 13 August 2020
Orbit: 836 x 863 km, 70.9° (Epoch: 22 September)

Event Time Altitude Azimuth Distance (km) Brightness Sun altitude
Exits shadow 22:24:19 43° 203° (SSW) 1,170 4.6 -22.9°
Maximum altitude 22:26:17 85° 118° (ESE) 850 4.1 -23.0°
Drops below altitude 10° 22:31:59 10° 30° (NNE) 2,475 7.1 -23.3°
Sets 22:34:26 0° 30° (NNE) 3,418 7.9 -23.5°
